Regional Weather Roundup
Issued by NWS

Home | Current Version | Previous Version | Text Only | Print | Product List | Glossary Off
Versions: 1 2 3 4 5 6 7 8 9 10 11 12 13 14 15 16 17 18 19 20 21 22 23 24 25 26 27 28 29 30 31 32 33 34 35 36 37 38 39 40 41 42 43 44 45 46 47 48 49 50

000
ASUS43 KMKX 160521
RWRWI

WISCONSIN REGIONAL WEATHER ROUNDUP
NATIONAL WEATHER SERVICE MILWAUKEE/SULLIVAN WI
1200 AM CDT WED AUG 16 2017

NOTE: "FAIR" INDICATES FEW OR NO CLOUDS BELOW 12,000 FEET WITH NO
SIGNIFICANT WEATHER AND/OR OBSTRUCTIONS TO VISIBILITY.

WIZ001-002-006>008-014>016-023>028-160600-
NORTHWEST WISCONSIN

CITY           SKY/WX    TMP DP  RH WIND       PRES   REMARKS
SUPERIOR ARPT    N/A     61  60  97 NE7       30.00F
ASHLAND        FOG       51  51 100 CALM      30.02S VSB 3/4
HAYWARD        MOCLDY    63  54  72 E7        30.01S
SIREN          CLOUDY    61  59  94 CALM      29.98S
CUMBERLAND     CLOUDY    59  57  94 E5        29.99F
RICE LAKE      CLOUDY    58  57  97 CALM      30.00F FOG
CHETEK         CLOUDY    61  61  98 E5        29.99S
LADYSMITH      CLOUDY    60  57  89 E6        30.03S
EAU CLAIRE     MOCLDY    61  58  90 NE5       29.97S
MENOMONIE      CLOUDY    61  59  92 NE3       29.97F
NEW RICHMOND   PTCLDY    61  58  91 E3        29.96F
OSCEOLA        CLOUDY    62  62 100 E5        29.98F
$$

WIZ003>005-009-010-017-018-160600-
NORTH CENTRAL WISCONSIN

CITY           SKY/WX    TMP DP  RH WIND       PRES   REMARKS
MANITOWISH WTR CLOUDY    49  49 100 CALM      30.04S FOG
ARBOR VITAE    PTCLDY    57  55  92 CALM      30.04S
WOODRUFF       PTCLDY    57  55  92 CALM      30.04S
RHINELANDER    PTCLDY    55  54  96 CALM      30.05R
EAGLE RIVER    FOG       49  49 100 CALM      30.05R VSB 1/2
LAND O LAKES   CLOUDY    47  47 100 CALM      30.08R
PHILLIPS       CLOUDY    56  55  94 CALM      30.03S
TOMAHAWK         N/A     51  50  96 CALM      30.05R
MEDFORD        CLOUDY    56  54  90 E6        30.02S
MERRILL        CLOUDY    55  55 100 CALM      30.04R
$$

WIZ029-030-035-036-043>047-160600-
CENTRAL WISCONSIN

CITY           SKY/WX    TMP DP  RH WIND       PRES   REMARKS
WAUSAU         MOCLDY    61  58  90 E3        30.01S
MOSINEE        CLOUDY    59  59 100 E3        30.03S
MARSHFIELD     PTCLDY    61  56  83 E5        30.01R
STEVENS POINT  PTCLDY    60  60  98 SE3       30.03R
WAUPACA        CLOUDY    64  62  92 CALM      30.02R
WAUTOMA        CLOUDY    63  60  90 SE5       30.02R
WISC RAPIDS    PTCLDY    62  58  86 SE6       30.03R
CAMP DOUGLAS   CLOUDY    58  58 100 E5        30.00S
$$

WIZ011>013-019>022-031-037>040-048>050-160600-
NORTHEAST WISCONSIN

CITY           SKY/WX    TMP DP  RH WIND       PRES   REMARKS
ANTIGO         MOCLDY    55  53  94 CALM      30.05S
SHAWANO        CLOUDY    62  59  90 CALM      30.03R
OCONTO         MOCLDY    60  58  96 CALM      30.02S
STURGEON BAY   MOCLDY    63  60  90 NE5       30.03S
GREEN BAY      CLOUDY    60  60 100 CALM      30.03R
MANITOWOC      CLOUDY    60  58  92 CALM      30.04R
APPLETON       PTCLDY    63  59  88 SE3       30.01S
CLINTONVILLE   CLOUDY    59  57  94 CALM      30.03R
OSHKOSH        CLOUDY    64  59  83 CALM      30.02R
$$

WIZ032>034-041-042-053>061-160600-
SOUTHWEST WISCONSIN

CITY           SKY/WX    TMP DP  RH WIND       PRES   REMARKS
LA CROSSE      CLOUDY    68  64  87 E6        29.96S
SPARTA         CLOUDY    58  58  98 E3        29.99F
VIROQUA        CLOUDY    64  63  97 SE8       29.99F
BOSCOBEL       CLOUDY    62  60  93 CALM      29.98S FOG
PRAIRIE DU CHI PTCLDY    65  61  88 SE3       29.96F
PLATTEVILLE    CLEAR     65  65 100 E8        29.99S
$$

WIZ056-057-062-063-064-067-068-160600-
SOUTH CENTRAL WISCONSIN

CITY           SKY/WX    TMP DP  RH WIND       PRES   REMARKS
REEDSBURG      CLOUDY    63  62  97 CALM      30.00S
BARABOO/DELLS  CLOUDY    64  59  82 SE5       30.02R
LONE ROCK      PTCLDY    62  62 100 E5        29.99S
MINERAL POINT  CLEAR     66  64  94 E7        30.00F
MADISON        PTCLDY    64  61  90 SE7       30.01S
MIDDLETON      PTCLDY    67  62  85 SE9       30.01S
WATERTOWN      CLOUDY    59  59 100 E3        30.02S
MONROE         CLOUDY    63  61  94 E6        30.00S
JANESVILLE     PTCLDY    63  63 100 E3        30.00S
$$

WIZ051-052-058>065-066-070>072-160600-
SOUTHEAST WISCONSIN

CITY           SKY/WX    TMP DP  RH WIND       PRES   REMARKS
MILWAUKEE      MOCLDY    66  60  81 NE5       30.01F
WAUKESHA       CLOUDY    57  55  94 CALM      30.03S
MILWAUKEE/TIMM PTCLDY    63  55  77 CALM      30.03S
RACINE         PTCLDY    65  58  78 MISG      30.02F
KENOSHA        PTCLDY    60  58  92 CALM      30.01F
FOND DU LAC    PTCLDY    62  57  83 S5        30.02S
SHEBOYGAN      CLOUDY    56  56 100 CALM      30.03S FOG
WEST BEND      PTCLDY    55  55 100 CALM      30.03S
JUNEAU         CLEAR     60  58  91 CALM      30.04S
$$

LSZ147-162-160600-
LAKE SUPERIOR

STATION/POSITION TIME  TEMP    WIND        PRES    WAVE
                       AIR SEA DIR/SP/G            HT/PER
                 (UTC) (F)     (DEG/KT/KT) (MB)    (FT/S)
W MID LAKE BUOY  0450   61 60   70/  8/ 10 1016.4F   1
DEVILS ISLAND    0500   62     100/ 10/ 12 1016.5S
SAXON HARBOR     0440   55     160/  3/  5 1015.9R
$$

LMZ867-665-643>646-160600-
LAKE MICHIGAN

STATION/POSITION TIME  TEMP    WIND        PRES    WAVE
                       AIR SEA DIR/SP/G            HT/PER
                 (UTC) (F)     (DEG/KT/KT) (MB)    (FT/S)
S GREEN BAY BUOY 0500   67 72   90/ 10/ 12 1016.2
N MID LAKE BUOY  0450   64 67   60/ 12/ 14 1017.1R   2/ 4
NORTHPORT PIER   0440   63      60/  3/  4 1016.9R
KEWAUNEE LAKESHO 0454   66      70/  3/  5 1015.7R
SHEBOYGAN LAKESH 0500   68      50/  7/  7 1016.3R
PORT WASHINGTON  0440   66     350/  3/  4 1016.9F
ATWATER BUOY     0409   69 71   50/  8/ 10 1016.4R
MILWAUKEE LAKESH 0500   69      60/  7/  8   N/A
S MID LAKE BUOY  0450   70 72   30/ 10/ 12 1015.8R   2/ 5
KENOSHA   LAKESH 0500   70      70/ 10/ 12 1015.9
$$

TC  - TEMPERATURE IN CELSIUS
VSB - VISIBILITY IN STATUTE MILES
WCI - WIND CHILL INDEX
HX  - HEAT INDEX





USA.gov is the U.S. government's official web portal to all federal, state and local government web resources and services.